Location: Gälforsberget
(66.6500°N, 22.4167°E)
Time: 10:45:14
(UTC+00:00)

NOSS 3-4 (A) - Pass Details

Date: 11 April 2026
Orbit: 769 x 1442 km, 63.4° (Epoch: 10 January)

Event Time Altitude Azimuth Distance (km) Brightness Sun altitude
Exits shadow 20:23:13 11° 178° (S) 2,368 5.0 -11.3°
Maximum altitude 20:27:26 24° 126° (SE) 1,713 4.3 -11.5°
Drops below altitude 10° 20:32:12 10° 75° (ENE) 2,673 5.7 -11.7°
Sets 20:35:23 0° 63° (ENE) 3,738 6.5 -11.9°
